Weather in Uljyanovo

Russia / Kaluga Oblast     53°43′20″N   35°32′13″E
temp.,
°C
wind,
m/s
gust,
m/s
humid.,
%
clouds,
%
prec.,
mm/h
press.,
hPa
HPBL,
m
14 april, wed
wed1400:00+12sse2873100 0.0 1019211
03:00+11sse310845 0.0 1019403
06:00+9se3897100 0.0 1019209
09:00+13s367790 0.0 1019639
12:00+15s4663100 0.1 10181284
15:00+15s2560100 0.1 10171230
18:00+14e1168100 0.0 101618
21:00+11ene1179100 0.3 101710
15 april, thu
thu1500:00+10ene1186100 0.3 101611
03:00+9e1187100 0.3 101622
06:00+9ese127293 0.0 101516
09:00+11ese2370100 0.0 1015224
12:00+11ese2581100 0.7 1015557
15:00+9e3793100 3.6 1015475
18:00+12ese258080 0.0 1014480
21:00+9ene41092100 0.6 1014424
16 april, fri
fri1600:00+7ene269614 0.8 1014133
03:00+8ene389387 1.4 1014207
06:00+8e3996100 0.3 1015284
09:00+9e2394100 1.1 1015226
12:00+13e3674100 0.1 10161021
15:00+15ese4663100 1.4 10151287
18:00+12e2579100 2.1 1016151
21:00+9e118821 2.3 101710
17 april, sat
sat1700:00+8ne119078 0.1 101814
03:00+7e279588 0.3 1019171
06:00+7ene119460 0.0 102030
09:00+10ene4688100 0.8 1019545
12:00+10ne3690100 0.4 1022467
15:00+13ene5107797 1.8 1021946
18:00+12e41082100 2.2 1021500
21:00+10e41094100 6.6 1024470
18 april, sun
sun1800:00+9ene41293100 1.7 1024534
03:00+7ene4108767 1.8 1025367
06:00+5ene3108723 0.0 1026300
09:00+9e47749 0.0 1027501
12:00+12e3572100 0.0 1027932
15:00+14e57435 0.0 10291587
18:00+12e486329 0.0 1027848
21:00+8ene298124 0.0 1028175